Regional Weather Roundup
Issued by NWS

Home | Current Version | Previous Version | Graphics & Text | Print | Product List | Glossary On
Versions: 1 2 3 4 5 6 7 8 9 10 11 12 13 14 15 16 17 18 19 20 21 22 23 24 25 26 27 28 29 30 31 32 33 34 35 36 37 38 39 40 41 42 43 44 45 46 47 48 49 50
612
ASUS44 KJAN 251803
RWRMS

MISSISSIPPI HOURLY WEATHER ROUNDUP
NATIONAL WEATHER SERVICE JACKSON MS
1200 PM CST SUN JAN 25 2015

NOTE: "FAIR: INDICATES FEW OR NO CLOUDS BELOW 12,000 FEET WITH NO
SIGNIFICANT WEATHER AND/OR OBSTRUCTIONS TO VISIBILITY.

MSZ001>002-007>008-010>013-018>021-025>028-034>036-251900-
NORTHWEST MISSISSIPPI

CITY           SKY/WX    TMP DP  RH WIND       PRES   REMARKS
CLARKSDALE     FAIR      52  41  66 SW10      29.75F
CLEVELAND      MOCLDY    53  45  75 SW13      29.77F
GREENWOOD      CLOUDY    57  40  52 SW16G26   29.78F
6HR MIN TEMP:  40; 6HR MAX TEMP:  59;

GREENVILLE     CLOUDY    56  40  55 W14       29.78F
6HR MIN TEMP:  39; 6HR MAX TEMP:  57;

GRENADA        CLOUDY    55  37  50 SW13G21   29.77F
OLIVE BRANCH   PTSUNNY   45  45 100 SW12      29.72F
OXFORD         FAIR      55  36  47 SW12G23   29.75F
TUNICA         MOCLDY    50  43  76 SW13      29.74F
$$

MSZ003>006-009-014>017-022>024-029>033-037>039-251900-
NORTHEAST MISSISSIPPI

CITY           SKY/WX    TMP DP  RH WIND       PRES   REMARKS
COLUMBUS AFB   PTSUNNY   58  39  49 S14G21    29.76F
6HR MIN TEMP:  32; 6HR MAX TEMP:  58;

CORINTH        CLOUDY    55  37  50 SW15      29.70F
GOLDN TRIANGLE MOSUNNY   57  39  51 S16G23    29.77F
STARKVILLE     FAIR      59  37  44 SW8G22    29.77F
TUPELO         CLOUDY    57  36  45 S17       29.74F
6HR MIN TEMP:  32; 6HR MAX TEMP:  58;

$$

MSZ040-058-251900-
CENTRAL MISSISSIPPI

CITY           SKY/WX    TMP DP  RH WIND       PRES   REMARKS
JACKSON INTL   MOSUNNY   62  39  42 S21       29.83F
6HR MIN TEMP:  35; 6HR MAX TEMP:  62;

JACKSON HAWKNS SUNNY     62  39  42 SW21      29.84F
6HR MIN TEMP:  36; 6HR MAX TEMP:  63;

MERIDIAN KEY   SUNNY     60  37  42 SW17G28   29.84F
6HR MIN TEMP:  32; 6HR MAX TEMP:  60;

MERIDIAN NAS   SUNNY     61  37  41 VRB7G18   29.83F
6HR MIN TEMP:  38; 6HR MAX TEMP:  61;

RAYMOND        FAIR      63  57  82 SW12G22   29.84F
VICKSBURG      SUNNY     62  41  46 SW9G18    29.84F
6HR MIN TEMP:  39; 6HR MAX TEMP:  62;

$$

MSZ059>079-251900-
SOUTH MISSISSIPPI

CITY           SKY/WX    TMP DP  RH WIND       PRES   REMARKS
BROOKHAVEN     FAIR      61  39  44 S14G22    29.89F
HATTIESBURG    SUNNY     61  37  41 S15G22    29.92F
6HR MIN TEMP:  33; 6HR MAX TEMP:  61;

MCCOMB         SUNNY     62  38  40 SW10G20   29.91F
6HR MIN TEMP:  31; 6HR MAX TEMP:  62;

NATCHEZ        SUNNY     63  39  42 SW15G23   29.89F
6HR MIN TEMP:  37; 6HR MAX TEMP:  63;

PINE BELT      SUNNY     61  37  41 SW15      29.91F
6HR MIN TEMP:  34; 6HR MAX TEMP:  61;

$$

MSZ080>082-251900-
COASTAL MISSISSIPPI

CITY           SKY/WX    TMP DP  RH WIND       PRES   REMARKS
BAY ST LOUIS   SUNNY     61  32  33 W12G18    29.97F
BILOXI         SUNNY     58  45  61 SW15      29.97F
6HR MIN TEMP:  41; 6HR MAX TEMP:  58;

PASCAGOULA     SUNNY     61  40  45 SW12G18   29.97F
6HR MIN TEMP:  33; 6HR MAX TEMP:  61;

GULFPORT       SUNNY     58  44  60 S12       29.96F
6HR MIN TEMP:  34; 6HR MAX TEMP:  59;

$$



USA.gov is the U.S. government's official web portal to all federal, state and local government web resources and services.